(392942) = 2012 WU5 = 2014 DC85

Discovered at Mount Lemmon on 2007-09-13 by Mt. Lemmon Survey.

Orbit

Orbit type: Main Belt

Note: WebGL enabled browser required.

epoch2023-02-25.0
epoch JD2460000.5
perihelion date2022-03-21.51659
perihelion JD2459660.01659
argument of perihelion (°)26.44865
ascending node (°)53.31833
inclination (°)3.38972
eccentricity0.0436997
perihelion distance (AU)2.6297945
Tisserand w.r.t. Jupiter3.3
ΔV w.r.t. Earth (km/sec)10.2
semimajor axis (AU)2.7499672
mean anomaly (°)73.58826
mean daily motion (°/day)0.21612880
aphelion distance (AU)2.870
period (years)4.56
P-vector [x]0.17827687
P-vector [y]0.89198547
P-vector [z]0.41542662
Q-vector [x]-0.98283716
Q-vector [y]0.14107617
Q-vector [z]0.11886394
absolute magnitude17.19
phase slope0.15
uncertainty0
referenceMPEC 2023-F189
observations used214
oppositions10
arc length (days)5673
first opposition used2007
last opposition used2023
residual rms (arc-secs)0.83
perturbers coarse indicatorM-v
perturbers precise indicator003Ek
first observation date used2007-09-13.0
last observation date used2023-03-26.0
computer nameMPCLINUX
Minimum Orbit Intersection Distances (in AU)
for orbit epoch: 2460000.5, reference: E2023-FI9
Mercury2.32246
Venus1.90972
Earth1.64458
Mars1.02167
Jupiter2.22753
Saturn6.43493
Uranus15.695
Neptune27.161

Observations

214 total observations over interval: 2007 09 13.38951 – 2023 03 26.220958
These data are available for download (format description).

Date (UT) J2000 RA J2000 Dec Magn Location Ref
2007 09 13.38951 01 17 23.42 +04 15 54.2 20.2 V G96 – Mt. Lemmon Survey MPS 504091
2007 09 13.39713 01 17 23.20 +04 15 52.2 20.4 V G96 – Mt. Lemmon Survey MPS 504091
2007 09 13.40485 01 17 22.92 +04 15 51.4 20.3 V G96 – Mt. Lemmon Survey MPS 504091
2007 09 13.41249 01 17 22.63 +04 15 49.9 20.6 V G96 – Mt. Lemmon Survey MPS 504091
2007 09 13.44753 01 17 21.40 +04 15 42.6 21.3 V G96 – Mt. Lemmon Survey MPS 504091
2007 09 13.45007 01 17 21.30 +04 15 42.1 21.1 V G96 – Mt. Lemmon Survey MPS 504091
2007 09 13.45260 01 17 21.19 +04 15 41.6 21.5 V G96 – Mt. Lemmon Survey MPS 504091
2007 09 13.45521 01 17 21.12 +04 15 41.3 21.6 V G96 – Mt. Lemmon Survey MPS 504091
2007 10 13.24830 00 54 35.13 +02 14 55.3 20.3 V G96 – Mt. Lemmon Survey MPS 504091
2007 10 13.25411 00 54 34.84 +02 14 54.0 20.6 V G96 – Mt. Lemmon Survey MPS 504091
2007 10 13.25992 00 54 34.52 +02 14 52.6 20.3 V G96 – Mt. Lemmon Survey MPS 504091
2007 10 13.26573 00 54 34.23 +02 14 51.7 20.8 V G96 – Mt. Lemmon Survey MPS 504091
2007 11 02.18546 00 39 44.78 +01 12 17.0 20.3 V G96 – Mt. Lemmon Survey MPS 504091
2007 11 02.19382 00 39 44.49 +01 12 16.0 21.2 V G96 – Mt. Lemmon Survey MPS 504091
2007 11 02.20213 00 39 44.13 +01 12 14.9 21.1 V G96 – Mt. Lemmon Survey MPS 504091
2007 11 02.21044 00 39 43.84 +01 12 13.5 21.5 V G96 – Mt. Lemmon Survey MPS 504091
2007 11 02.24425 00 39 42.62 +01 12 09.9 20.2 V G96 – Mt. Lemmon Survey MPS 504091
2007 11 02.25461 00 39 42.22 +01 12 09.0 20.6 V G96 – Mt. Lemmon Survey MPS 504091
2007 11 02.26500 00 39 41.86 +01 12 07.2 20.5 V G96 – Mt. Lemmon Survey MPS 504091
2007 11 02.27548 00 39 41.47 +01 12 06.3 20.7 V G96 – Mt. Lemmon Survey MPS 504091
2008 12 31.36162 08 56 52.44 +22 08 22.2 21.3 V G96 – Mt. Lemmon Survey MPS 504091
2008 12 31.37310 08 56 52.00 +22 08 25.0 21.3 V G96 – Mt. Lemmon Survey MPS 504091
2008 12 31.38453 08 56 51.57 +22 08 27.9 20.9 V G96 – Mt. Lemmon Survey MPS 504091
2008 12 31.39889 08 56 51.00 +22 08 31.0 21.0 V G96 – Mt. Lemmon Survey MPS 504091
2008 12 31.41247 08 56 50.49 +22 08 34.3 21.3 V 691 – Steward Observatory, Kitt Peak-Spacewatch MPS 504091
2008 12 31.43086 08 56 49.81 +22 08 38.8 20.9 V 691 – Steward Observatory, Kitt Peak-Spacewatch MPS 504091
2008 12 31.44663 08 56 49.22 +22 08 42.5 20.9 V 691 – Steward Observatory, Kitt Peak-Spacewatch MPS 504091
2009 01 15.42835 08 45 28.97 +23 13 00.4   291 – LPL/Spacewatch II MPS 504091
2009 01 15.43594 08 45 28.56 +23 13 02.9   291 – LPL/Spacewatch II MPS 504091
2009 01 15.44312 08 45 28.17 +23 13 04.6   291 – LPL/Spacewatch II MPS 504091
2009 02 03.12505 08 27 42.56 +24 24 52.6 20.9 V 691 – Steward Observatory, Kitt Peak-Spacewatch MPS 504091
2009 02 03.14319 08 27 41.52 +24 24 56.0 20.9 V 691 – Steward Observatory, Kitt Peak-Spacewatch MPS 504091
2009 02 03.16157 08 27 40.47 +24 24 59.6 20.8 V 691 – Steward Observatory, Kitt Peak-Spacewatch MPS 504091
2012 11 17.21052 04 10 52.43 +21 48 29.9   691 – Steward Observatory, Kitt Peak-Spacewatch MPS 443655
2012 11 17.22852 04 10 51.35 +21 48 28.3   691 – Steward Observatory, Kitt Peak-Spacewatch MPS 443655
2012 11 17.24650 04 10 50.32 +21 48 27.7   691 – Steward Observatory, Kitt Peak-Spacewatch MPS 443655
2012 11 22.20955 04 06 00.12 +21 42 37.0 20.6 V 691 – Steward Observatory, Kitt Peak-Spacewatch MPS 443655
2012 11 22.22723 04 05 59.06 +21 42 35.3 20.3 V 691 – Steward Observatory, Kitt Peak-Spacewatch MPS 443655
2012 11 22.24492 04 05 57.96 +21 42 34.3 20.2 V 691 – Steward Observatory, Kitt Peak-Spacewatch MPS 443655
2012 11 23.98659 04 04 14.65 +21 40 16.8 19.2   J43 – Oukaimeden Observatory, Marrakech MPS 443655
2012 11 24.01542 04 04 12.84 +21 40 14.0 20.2   J43 – Oukaimeden Observatory, Marrakech MPS 443655
2012 11 24.04452 04 04 11.10 +21 40 12.6 19.7   J43 – Oukaimeden Observatory, Marrakech MPS 443655
2012 12 09.07200 03 49 55.59 +21 17 49.9 21.4 V G96 – Mt. Lemmon Survey MPS 446161
2012 12 09.07991 03 49 55.30 +21 17 47.9 21.5 V G96 – Mt. Lemmon Survey MPS 446161
2012 12 09.08517 03 49 54.84 +21 17 48.4 19.9 V G96 – Mt. Lemmon Survey MPS 446161
2012 12 09.09047 03 49 54.62 +21 17 47.8 20.2 V G96 – Mt. Lemmon Survey MPS 446161
2014 02 25.26792 11 48 58.47 +06 20 36.9   691 – Steward Observatory, Kitt Peak-Spacewatch MPS 504189
2014 02 25.28561 11 48 57.68 +06 20 42.4   691 – Steward Observatory, Kitt Peak-Spacewatch MPS 504189
2014 02 25.30327 11 48 56.90 +06 20 47.0   691 – Steward Observatory, Kitt Peak-Spacewatch MPS 504189
2014 02 28.41089 11 46 38.114 +06 36 12.66 20.9 w F51 – Pan-STARRS 1, Haleakala MPS 504189
2014 02 28.41155 11 46 38.085 +06 36 12.92 20.8 w F51 – Pan-STARRS 1, Haleakala MPS 504189
2014 02 28.42339 11 46 37.514 +06 36 16.39 21.0 w F51 – Pan-STARRS 1, Haleakala MPS 504189
2014 02 28.42405 11 46 37.484 +06 36 16.63 20.9 w F51 – Pan-STARRS 1, Haleakala MPS 504189
2014 02 28.43575 11 46 36.926 +06 36 20.15 20.9 w F51 – Pan-STARRS 1, Haleakala MPS 504189
2014 02 28.43641 11 46 36.891 +06 36 20.25 21.0 w F51 – Pan-STARRS 1, Haleakala MPS 504189
2014 02 28.44816 11 46 36.334 +06 36 23.95 20.8 w F51 – Pan-STARRS 1, Haleakala MPS 504189
2014 03 05.50060 11 42 35.047 +07 01 58.70 20.9 w F51 – Pan-STARRS 1, Haleakala MPS 504091
2014 03 05.51296 11 42 34.422 +07 02 02.45 20.8 w F51 – Pan-STARRS 1, Haleakala MPS 504091
2014 03 05.52538 11 42 33.787 +07 02 06.30 21.0 w F51 – Pan-STARRS 1, Haleakala MPS 504091
2014 03 06.26206 11 41 57.57 +07 05 49.5   691 – Steward Observatory, Kitt Peak-Spacewatch MPS 504091
2014 03 06.27975 11 41 56.73 +07 05 54.5   691 – Steward Observatory, Kitt Peak-Spacewatch MPS 504091
2014 03 06.29743 11 41 55.79 +07 05 59.7   691 – Steward Observatory, Kitt Peak-Spacewatch MPS 504091
2014 03 10.30617 11 38 34.09 +07 26 12.4 21.0 V G96 – Mt. Lemmon Survey MPS 505446
2014 03 10.31444 11 38 33.66 +07 26 14.8 20.9 V G96 – Mt. Lemmon Survey MPS 505446
2014 03 10.32269 11 38 33.19 +07 26 17.1 20.6 V G96 – Mt. Lemmon Survey MPS 505446
2014 03 10.33098 11 38 32.69 +07 26 19.9 19.9 V G96 – Mt. Lemmon Survey MPS 505446
2014 03 12.34632 11 36 50.063 +07 36 17.73 20.5 i F51 – Pan-STARRS 1, Haleakala MPS 505446
2014 03 12.36080 11 36 49.297 +07 36 21.97 20.5 i F51 – Pan-STARRS 1, Haleakala MPS 505446
2014 03 12.37275 11 36 48.689 +07 36 25.42 20.4 i F51 – Pan-STARRS 1, Haleakala MPS 505446
2016 08 28.37626 00 33 15.69 -01 05 48.3 21.1 V G96 – Mt. Lemmon Survey MPS 727551
2016 08 28.38402 00 33 15.48 -01 05 50.0 21.0 V G96 – Mt. Lemmon Survey MPS 727551
2016 08 28.39189 00 33 15.22 -01 05 50.4 21.0 V G96 – Mt. Lemmon Survey MPS 727551
2016 08 28.39971 00 33 14.97 -01 05 52.3 20.9 V G96 – Mt. Lemmon Survey MPS 727551
2016 09 22.29231 00 15 57.75 -02 54 09.5 20.1 V G96 – Mt. Lemmon Survey MPS 730665
2016 09 22.29656 00 15 57.43 -02 54 10.9 19.8 V G96 – Mt. Lemmon Survey MPS 730665
2016 09 22.30045 00 15 57.31 -02 54 11.8 20.4 V G96 – Mt. Lemmon Survey MPS 730665
2016 09 22.30465 00 15 57.14 -02 54 13.1 20.2 V G96 – Mt. Lemmon Survey MPS 730665
2016 09 25.42655 00 13 20.05 -03 08 38.9 20.5 V G96 – Mt. Lemmon Survey MPS 732227
2016 09 25.43270 00 13 19.78 -03 08 39.9 20.6 V G96 – Mt. Lemmon Survey MPS 732227
2016 09 25.43826 00 13 19.47 -03 08 42.7 20.3 V G96 – Mt. Lemmon Survey MPS 732227
2016 09 25.44261 00 13 19.27 -03 08 43.5 20.1 V G96 – Mt. Lemmon Survey MPS 732227
2016 09 26.39393 00 12 31.529 -03 13 01.44 20.7 w F51 – Pan-STARRS 1, Haleakala MPS 732227
2016 09 26.40477 00 12 30.964 -03 13 04.53 20.7 w F51 – Pan-STARRS 1, Haleakala MPS 732227
2016 09 26.41555 00 12 30.396 -03 13 07.36 20.6 w F51 – Pan-STARRS 1, Haleakala MPS 732227
2016 09 26.42632 00 12 29.833 -03 13 10.26 20.8 w F51 – Pan-STARRS 1, Haleakala MPS 732227
2016 10 21.13935 23 54 10.24 -04 36 24.4 20.4 V G96 – Mt. Lemmon Survey MPS 739625
2016 10 21.14669 23 54 09.91 -04 36 25.4 20.6 V G96 – Mt. Lemmon Survey MPS 739625
2016 10 21.15103 23 54 09.78 -04 36 24.7 21.2 V G96 – Mt. Lemmon Survey MPS 739625
2016 10 21.15534 23 54 09.62 -04 36 26.0 22.1 V G96 – Mt. Lemmon Survey MPS 739625
2017 12 13.37153 08 05 04.34 +24 22 06.3 21.4 G G96 – Mt. Lemmon Survey MPS 848968
2017 12 13.37720 08 05 04.20 +24 22 07.5 21.1 G G96 – Mt. Lemmon Survey MPS 848968
2017 12 13.38289 08 05 03.99 +24 22 09.0 21.4 G G96 – Mt. Lemmon Survey MPS 848968
2017 12 13.38857 08 05 03.86 +24 22 09.9 21.5 G G96 – Mt. Lemmon Survey MPS 848968
2017 12 13.47019 08 05 01.676 +24 22 26.32 21.2 w F51 – Pan-STARRS 1, Haleakala MPS 848968
2017 12 13.48213 08 05 01.319 +24 22 28.55 21.2 w F51 – Pan-STARRS 1, Haleakala MPS 848968
